Tracking 22779 objects as of 12-Apr-2021
HD Live streaming from Space Station
objects crossing your sky now

STARLINK-1091

Track STARLINK-1091 now!
10-day predictions
STARLINK-1091 is classified as:


NORAD ID: 44940
Int'l Code: 2020-001AC
Perigee: 553.9 km
Apogee: 554.8 km
Inclination: 53.1 °
Period: 95.6 minutes
Semi major axis: 6925 km
RCS: Unknown
Launch date: January 7, 2020
Source: United States (US)
Launch site: AIR FORCE EASTERN TEST RANGE (AFETR)
aabbcc
Your satellite tracking list
Your tracking list is empty




NASA's NSSDC Master Catalog

Two Line Element Set (TLE):
1 44940U 20001AC  21101.95440538  .00000340  00000-0  41692-4 0  9990
2 44940  53.0580  94.5042 0000667  70.5599 289.5462 15.06395938 69912
Source of the keplerian elements: AFSPC